STARLINK-1342, 45558

Orbit data source: Space-Track

STARLINK-1342, 45558 is a payload satellite owned by SpaceX/Seattle (US) in LEO that was launched on Wed, 22 Apr 2020 UTC via an FALCON 9 launch vehicle from the Air Force Eastern Test Range (AFETR). Payload-class satellites include a variety of spacecraft equipped with specific instruments for various scientific and technological missions. These include communications satellites like Starlink; space stations such as the ISS; scientific satellites like the Hubble; Earth observation satellites from companies like Planet Labs, Umbra, and HawkEye 360; GPS; miniature CubeSats for education and research; and military/defense satellites.

Loading next visibility...
Identifier
45558, 2020-025AD
Orbit
LEO
Last TLE update
9 hours ago
Origin
Manufacturer
SpaceX/Seattle
Mission
Partially operational Commercial Communications
Bus & Motor
STARLINK, Unknown motor
Mass
260 kg wet, ~248 kg dry
Launch date (UTC)
2020-04-22 (5 years ago)
Launch vehicle
FALCON 9
Launch site
Air Force Eastern Test Range (AFETR)
Object type
Payload
Rocket body
Debris
Shape & HBR
Box + 1 Pan, 8.86 m
Radar Cross Section
13.562 m², Large (>1 m²)

Expand to show TLE details & history

TLE from 9 hours ago
0 STARLINK-1342
1 45558U 20025AD  25189.94558705  .00113145  00000-0  11352-2 0  9993
2 45558  53.0542  91.1249 0003175 163.9854 196.1261 15.64674412288763
Epoch: 2025-07-08T22:41Z
TLE epoch observation values (Epoch: 2025-07-08T22:41:38.721Z)
Latitude
-0.00002°
Longitude
-176.41974°
Altitude
377.136 km
Speed
7.684 km/s
True Right ascension
06h 04m 29s
True Declination
0° 00' 00"
Sunlit
Object was in daylight at epoch
Visualization orbit readout
Latitude
-31.06753°
Longitude
154.95492°
Altitude
385.406 km
Speed
7.678 km/s
Apparent Right ascension
05h 51m 13s
Apparent Declination
-38° 32' 34"
Sunlit
Object is in daylight
Visualization observer readout
Local Sidereal Time
19:52:48
Azimuth
96.489° ESE
Elevation
-66.528°
Doppler factor
1
Orbital elements
Apogee altitude
376.597 km
Perigee altitude
372.309 km
Semi-major axis
6,752.59 km
Eccentricity
0.00032
Inclination
53.0542°
RAAN
91.1249°
Arg. of periapsis
163.9854°
True anomaly
Unknown
Mean anomaly
196.1261°
Eccentric anomaly
Unknown
Mean motion
3.91145 °/min
Orbital period
92.04 mins
BSTAR
0.0011352
Loading maneuver chart data...
Loading SW <> Apogee altitude chart data...
Loading historical data...
Loading historical data...
Loading historical data...
Loading historical data...
Loading historical data...
Loading historical data...
Loading historical data...

STARLINK-1342 Visibility forecast

Observer location: undefined°, undefined°

Span
Click to sort rows by Start time (UTC) header in descending order
Start Az.
Max El. time (UTC)
Max El. Az.
Max El.
End time (UTC)
End Az.
4 mins2025-07-09 20:22:16.066Z251.676° W2025-07-09 20:23:16.066Z310.347° NW42.033°2025-07-09 20:26:16.066Z44.751° NE
4 mins2025-07-10 02:48:16.066Z316.405° NNW2025-07-10 02:49:16.066Z24.623° NE44.655°2025-07-10 02:52:16.066Z127.702° SE
|